sat.trackr.live / text

‹ back to catalog

LYNK TOWER 5

NORAD 59121 · 2024-043Z

PAYLOAD ACTIVE UNKNOWN

§ Identity

Operator
Country
US
Launch date
2024-03-04
Launch site
AFWTR
Launch vehicle
Mass (kg)
RCS (m²)

External: N2YO · Heavens-Above · Gunter

§ Orbital elements

Epoch: 2026-09-22T18:18:54.756864Z

Period
94.02 min
Inclination
97.5769°
Eccentricity
0.0009334
Mean motion
15.31648624 rev/d
Perigee alt
464.5 km
Apogee alt
477.3 km
Semi-major
6,849.0 km
B*
1.5052e-4
RAAN
45.2557°
Arg perigee
261.2332°
Mean anomaly
98.7852°
Rev number
14,197

§ Raw data

LYNK TOWER 51 59121U 24043Z   26265.76313376  .00004523  00000+0  15052-3 0  99972 59121  97.5769  45.2557 0009334 261.2332  98.7852 15.31648624141970

JSON: /api/v1/satellites/59121 · /tle

For live sub-satellite position, see the globe view (requires WebGL).

§ Visibility from observer

Set your observer location to see the next 7 days of passes ≥ 10°. The values pass through the URL so the page stays shareable.

No JS? Fill the form by hand. The geolocation button needs JavaScript.

§ Radio — SatNOGS DB

ModeDescriptionDownlinkUplink
BPSK S-band telemetry 2.260 GHz

1 transmitter · refreshed weekly from db.satnogs.org